owner,sensor,date,latitude,longitude,vertical_datum,wind_speed,wind_to_direction,wind_speed_of_gust,qcFlag 
TCOON,ioos:station:TCOON:057:1,2008-02-01T00:00:00Z,28.4460,-96.3961,0.0,10.0,326.0,11.3,'11111222,11111222,11111222' 
TCOON,ioos:station:TCOON:057:1,2008-02-01T01:00:00Z,28.4460,-96.3961,0.0,9.7,334.0,11.3,'11111222,11111222,11111222' 
TCOON,ioos:station:TCOON:057:1,2008-02-01T05:00:00Z,28.4460,-96.3961,0.0,10.2,341.0,12.2,'11111222,11111222,11111222' 
TCOON,ioos:station:TCOON:057:1,2008-02-01T06:00:00Z,28.4460,-96.3961,0.0,8.8,351.0,10.6,'11111222,11111222,11111222' 
TCOON,ioos:station:TCOON:057:1,2008-02-01T07:00:00Z,28.4460,-96.3961,0.0,7.4,356.0,8.6,'11111222,11111222,11111222' 
TCOON,ioos:station:TCOON:057:1,2008-02-01T08:00:00Z,28.4460,-96.3961,0.0,6.7,360.0,7.2,'11111222,11144222,11111222' 
TCOON,ioos:station:TCOON:057:1,2008-02-01T09:00:00Z,28.4460,-96.3961,0.0,6.4,10.0,7.0,'11111222,11111222,11111222' 
TCOON,ioos:station:TCOON:057:1,2008-02-01T10:00:00Z,28.4460,-96.3961,0.0,7.5,19.0,8.9,'11111222,11111222,11111222' 
TCOON,ioos:station:TCOON:057:1,2008-02-01T11:00:00Z,28.4460,-96.3961,0.0,7.2,15.0,8.7,'11111222,11111222,11111222' 
TCOON,ioos:station:TCOON:057:1,2008-02-01T12:00:00Z,28.4460,-96.3961,0.0,6.2,16.0,7.6,'11111222,11111222,11111222' 
TCOON,ioos:station:TCOON:057:1,2008-02-01T13:00:00Z,28.4460,-96.3961,0.0,3.8,30.0,4.2,'11111222,11111222,11111222' 
TCOON,ioos:station:TCOON:057:1,2008-02-01T14:00:00Z,28.4460,-96.3961,0.0,5.1,31.0,6.2,'11111222,11111222,11111222' 
TCOON,ioos:station:TCOON:057:1,2008-02-01T15:00:00Z,28.4460,-96.3961,0.0,4.4,51.0,5.2,'11111222,11111222,11111222' 
TCOON,ioos:station:TCOON:057:1,2008-02-01T16:00:00Z,28.4460,-96.3961,0.0,3.1,65.0,3.9,'11111222,11111222,11111222' 
TCOON,ioos:station:TCOON:057:1,2008-02-01T17:00:00Z,28.4460,-96.3961,0.0,3.1,113.0,3.9,'11111222,11111222,11111222' 
TCOON,ioos:station:TCOON:057:1,2008-02-01T18:00:00Z,28.4460,-96.3961,0.0,2.6,106.0,3.5,'11111222,11111222,11111222' 
TCOON,ioos:station:TCOON:057:1,2008-02-01T19:00:00Z,28.4460,-96.3961,0.0,2.5,90.0,2.8,'11111222,11111222,11111222' 
TCOON,ioos:station:TCOON:057:1,2008-02-01T20:00:00Z,28.4460,-96.3961,0.0,3.3,142.0,3.7,'11111222,11111222,11111222' 
TCOON,ioos:station:TCOON:057:1,2008-02-01T21:00:00Z,28.4460,-96.3961,0.0,3.5,138.0,4.0,'11111222,11111222,11111222' 
TCOON,ioos:station:TCOON:057:1,2008-02-01T22:00:00Z,28.4460,-96.3961,0.0,4.6,124.0,5.6,'11111222,11111222,11111222' 
TCOON,ioos:station:TCOON:057:1,2008-02-01T23:00:00Z,28.4460,-96.3961,0.0,5.4,127.0,5.9,'11111222,11111222,11111222' 
TCOON,ioos:station:TCOON:057:1,2008-02-02T00:00:00Z,28.4460,-96.3961,0.0,3.6,126.0,4.2,'11111222,11111222,11111222' 
TCOON,ioos:station:TCOON:057:1,2008-02-02T01:00:00Z,28.4460,-96.3961,0.0,3.9,116.0,4.3,'11111222,11111222,11111222' 
TCOON,ioos:station:TCOON:057:1,2008-02-02T02:00:00Z,28.4460,-96.3961,0.0,2.4,87.0,2.7,'11111222,11111222,11111222' 
TCOON,ioos:station:TCOON:057:1,2008-02-02T03:00:00Z,28.4460,-96.3961,0.0,3.0,151.0,3.6,'11111222,11111222,11111222' 
TCOON,ioos:station:TCOON:057:1,2008-02-02T04:00:00Z,28.4460,-96.3961,0.0,3.5,160.0,4.2,'11111222,11111222,11111222' 
TCOON,ioos:station:TCOON:057:1,2008-02-02T05:00:00Z,28.4460,-96.3961,0.0,4.3,174.0,4.8,'11111222,11111222,11111222' 
TCOON,ioos:station:TCOON:057:1,2008-02-02T06:00:00Z,28.4460,-96.3961,0.0,4.9,185.0,5.8,'11111222,11111222,11111222' 
TCOON,ioos:station:TCOON:057:1,2008-02-02T07:00:00Z,28.4460,-96.3961,0.0,5.0,190.0,6.0,'11111222,11111222,11111222' 
TCOON,ioos:station:TCOON:057:1,2008-02-02T08:00:00Z,28.4460,-96.3961,0.0,3.8,193.0,4.3,'11111222,11111222,11111222' 
TCOON,ioos:station:TCOON:057:1,2008-02-02T09:00:00Z,28.4460,-96.3961,0.0,0.8,280.0,1.3,'11111222,11111222,11111222' 
TCOON,ioos:station:TCOON:057:1,2008-02-02T10:00:00Z,28.4460,-96.3961,0.0,1.3,1.0,1.5,'11111222,11111222,11111222' 
TCOON,ioos:station:TCOON:057:1,2008-02-02T11:00:00Z,28.4460,-96.3961,0.0,2.6,28.0,2.9,'11111222,11111222,11111222' 
TCOON,ioos:station:TCOON:057:1,2008-02-02T12:00:00Z,28.4460,-96.3961,0.0,2.3,68.0,2.5,'11111222,11111222,11111222' 
TCOON,ioos:station:TCOON:057:1,2008-02-02T13:00:00Z,28.4460,-96.3961,0.0,3.4,84.0,3.7,'11111222,11111222,11111222' 
TCOON,ioos:station:TCOON:057:1,2008-02-02T14:00:00Z,28.4460,-96.3961,0.0,2.8,58.0,2.9,'11111222,11111222,11111222' 
TCOON,ioos:station:TCOON:057:1,2008-02-02T15:00:00Z,28.4460,-96.3961,0.0,2.8,79.0,3.1,'11111222,11111222,11111222' 
TCOON,ioos:station:TCOON:057:1,2008-02-02T16:00:00Z,28.4460,-96.3961,0.0,0.0,109.0,99.0,'11111222,11111222,11144222' 
TCOON,ioos:station:TCOON:057:1,2008-02-02T17:00:00Z,28.4460,-96.3961,0.0,4.3,120.0,4.4,'11111222,11111222,11111222' 
TCOON,ioos:station:TCOON:057:1,2008-02-02T18:00:00Z,28.4460,-96.3961,0.0,4.4,132.0,4.7,'11111222,11111222,11111222' 
TCOON,ioos:station:TCOON:057:1,2008-02-02T19:00:00Z,28.4460,-96.3961,0.0,5.4,146.0,6.0,'11111222,11111222,11111222' 
TCOON,ioos:station:TCOON:057:1,2008-02-02T20:00:00Z,28.4460,-96.3961,0.0,5.3,134.0,5.7,'11111222,11111222,11111222' 
TCOON,ioos:station:TCOON:057:1,2008-02-02T21:00:00Z,28.4460,-96.3961,0.0,5.6,126.0,6.0,'11111222,11111222,11111222' 
TCOON,ioos:station:TCOON:057:1,2008-02-02T22:00:00Z,28.4460,-96.3961,0.0,5.7,120.0,6.0,'11111222,11111222,11111222' 
TCOON,ioos:station:TCOON:057:1,2008-02-02T23:00:00Z,28.4460,-96.3961,0.0,6.2,120.0,6.9,'11111222,11111222,11111222' 
TCOON,ioos:station:TCOON:057:1,2008-02-03T00:00:00Z,28.4460,-96.3961,0.0,5.1,111.0,5.6,'11111222,11111222,11111222' 
TCOON,ioos:station:TCOON:057:1,2008-02-03T01:00:00Z,28.4460,-96.3961,0.0,4.4,128.0,4.9,'11111222,11111222,11111222' 
TCOON,ioos:station:TCOON:057:1,2008-02-03T02:00:00Z,28.4460,-96.3961,0.0,5.1,111.0,6.0,'11111222,11111222,11111222' 
TCOON,ioos:station:TCOON:057:1,2008-02-03T03:00:00Z,28.4460,-96.3961,0.0,5.2,113.0,5.8,'11111222,11111222,11111222' 
TCOON,ioos:station:TCOON:057:1,2008-02-03T04:00:00Z,28.4460,-96.3961,0.0,5.0,126.0,5.2,'11111222,11111222,11111222' 
TCOON,ioos:station:TCOON:057:1,2008-02-03T05:00:00Z,28.4460,-96.3961,0.0,1.7,227.0,2.2,'11111222,11111222,11111222' 
TCOON,ioos:station:TCOON:057:1,2008-02-03T06:00:00Z,28.4460,-96.3961,0.0,3.4,155.0,3.9,'11111222,11111222,11111222' 
TCOON,ioos:station:TCOON:057:1,2008-02-03T07:00:00Z,28.4460,-96.3961,0.0,2.7,147.0,2.9,'11111222,11111222,11111222' 
TCOON,ioos:station:TCOON:057:1,2008-02-03T08:00:00Z,28.4460,-96.3961,0.0,3.1,157.0,3.4,'11111222,11111222,11111222' 
TCOON,ioos:station:TCOON:057:1,2008-02-03T09:00:00Z,28.4460,-96.3961,0.0,4.8,166.0,5.6,'11111222,11111222,11111222' 
TCOON,ioos:station:TCOON:057:1,2008-02-03T10:00:00Z,28.4460,-96.3961,0.0,5.0,171.0,5.3,'11111222,11111222,11111222' 
TCOON,ioos:station:TCOON:057:1,2008-02-03T11:00:00Z,28.4460,-96.3961,0.0,4.1,173.0,4.4,'11111222,11111222,11111222' 
TCOON,ioos:station:TCOON:057:1,2008-02-03T12:00:00Z,28.4460,-96.3961,0.0,2.9,164.0,3.0,'11111222,11111222,11111222' 
TCOON,ioos:station:TCOON:057:1,2008-02-03T13:00:00Z,28.4460,-96.3961,0.0,0.0,102.0,99.0,'11111222,11111222,11144222' 
TCOON,ioos:station:TCOON:057:1,2008-02-03T14:00:00Z,28.4460,-96.3961,0.0,2.4,147.0,2.5,'11111222,11111222,11111222' 
TCOON,ioos:station:TCOON:057:1,2008-02-03T15:00:00Z,28.4460,-96.3961,0.0,1.4,164.0,1.6,'11111222,11111222,11111222' 
TCOON,ioos:station:TCOON:057:1,2008-02-03T16:00:00Z,28.4460,-96.3961,0.0,2.2,153.0,2.6,'11111222,11111222,11111222' 
TCOON,ioos:station:TCOON:057:1,2008-02-03T17:00:00Z,28.4460,-96.3961,0.0,6.1,170.0,6.6,'11111222,11111222,11111222' 
TCOON,ioos:station:TCOON:057:1,2008-02-03T18:00:00Z,28.4460,-96.3961,0.0,5.1,166.0,5.4,'11111222,11111222,11111222' 
TCOON,ioos:station:TCOON:057:1,2008-02-03T19:00:00Z,28.4460,-96.3961,0.0,3.9,160.0,4.4,'11111222,11111222,11111222' 
TCOON,ioos:station:TCOON:057:1,2008-02-03T20:00:00Z,28.4460,-96.3961,0.0,3.8,165.0,4.1,'11111222,11111222,11111222' 
TCOON,ioos:station:TCOON:057:1,2008-02-03T21:00:00Z,28.4460,-96.3961,0.0,5.5,151.0,5.9,'11111222,11111222,11111222' 
TCOON,ioos:station:TCOON:057:1,2008-02-03T22:00:00Z,28.4460,-96.3961,0.0,7.1,145.0,8.0,'11111222,11111222,11111222' 
TCOON,ioos:station:TCOON:057:1,2008-02-03T23:00:00Z,28.4460,-96.3961,0.0,6.4,138.0,7.0,'11111222,11111222,11111222' 
TCOON,ioos:station:TCOON:057:1,2008-02-04T00:00:00Z,28.4460,-96.3961,0.0,8.4,147.0,9.6,'11111222,11111222,11111222' 
TCOON,ioos:station:TCOON:057:1,2008-02-04T01:00:00Z,28.4460,-96.3961,0.0,7.8,146.0,8.6,'11111222,11111222,11111222' 
TCOON,ioos:station:TCOON:057:1,2008-02-04T02:00:00Z,28.4460,-96.3961,0.0,4.9,160.0,5.6,'11111222,11111222,11111222' 
TCOON,ioos:station:TCOON:057:1,2008-02-04T03:00:00Z,28.4460,-96.3961,0.0,5.1,145.0,5.6,'11111222,11111222,11111222' 
TCOON,ioos:station:TCOON:057:1,2008-02-04T04:00:00Z,28.4460,-96.3961,0.0,6.0,147.0,6.5,'11111222,11111222,11111222' 
TCOON,ioos:station:TCOON:057:1,2008-02-04T05:00:00Z,28.4460,-96.3961,0.0,5.1,157.0,5.4,'11111222,11111222,11111222' 
TCOON,ioos:station:TCOON:057:1,2008-02-04T06:00:00Z,28.4460,-96.3961,0.0,6.8,165.0,7.8,'11111222,11111222,11111222' 
TCOON,ioos:station:TCOON:057:1,2008-02-04T07:00:00Z,28.4460,-96.3961,0.0,5.4,169.0,6.1,'11111222,11111222,11111222' 
TCOON,ioos:station:TCOON:057:1,2008-02-04T08:00:00Z,28.4460,-96.3961,0.0,3.2,159.0,3.8,'11111222,11111222,11111222' 
TCOON,ioos:station:TCOON:057:1,2008-02-04T09:00:00Z,28.4460,-96.3961,0.0,6.1,165.0,6.7,'11111222,11111222,11111222' 
TCOON,ioos:station:TCOON:057:1,2008-02-04T10:00:00Z,28.4460,-96.3961,0.0,5.1,167.0,5.6,'11111222,11111222,11111222' 
TCOON,ioos:station:TCOON:057:1,2008-02-04T11:00:00Z,28.4460,-96.3961,0.0,3.5,136.0,3.7,'11111222,11111222,11111222' 
TCOON,ioos:station:TCOON:057:1,2008-02-04T12:00:00Z,28.4460,-96.3961,0.0,2.2,123.0,2.3,'11111222,11111222,11111222' 
TCOON,ioos:station:TCOON:057:1,2008-02-04T13:00:00Z,28.4460,-96.3961,0.0,4.5,132.0,4.9,'11111222,11111222,11111222' 
TCOON,ioos:station:TCOON:057:1,2008-02-04T14:00:00Z,28.4460,-96.3961,0.0,5.4,140.0,6.0,'11111222,11111222,11111222' 
TCOON,ioos:station:TCOON:057:1,2008-02-04T15:00:00Z,28.4460,-96.3961,0.0,7.4,146.0,8.3,'11111222,11111222,11111222' 
TCOON,ioos:station:TCOON:057:1,2008-02-04T16:00:00Z,28.4460,-96.3961,0.0,7.2,156.0,8.1,'11111222,11111222,11111222' 
TCOON,ioos:station:TCOON:057:1,2008-02-04T17:00:00Z,28.4460,-96.3961,0.0,6.3,156.0,7.2,'11111222,11111222,11111222' 
TCOON,ioos:station:TCOON:057:1,2008-02-04T18:00:00Z,28.4460,-96.3961,0.0,5.8,154.0,6.4,'11111222,11111222,11111222' 
TCOON,ioos:station:TCOON:057:1,2008-02-04T19:00:00Z,28.4460,-96.3961,0.0,5.5,145.0,6.2,'11111222,11111222,11111222' 
TCOON,ioos:station:TCOON:057:1,2008-02-04T20:00:00Z,28.4460,-96.3961,0.0,5.7,144.0,6.4,'11111222,11111222,11111222' 
TCOON,ioos:station:TCOON:057:1,2008-02-04T21:00:00Z,28.4460,-96.3961,0.0,6.5,142.0,8.5,'11111222,11111222,11111222' 
TCOON,ioos:station:TCOON:057:1,2008-02-04T22:00:00Z,28.4460,-96.3961,0.0,7.0,147.0,8.0,'11111222,11111222,11111222' 
TCOON,ioos:station:TCOON:057:1,2008-02-04T23:00:00Z,28.4460,-96.3961,0.0,7.3,146.0,8.3,'11111222,11111222,11111222' 
TCOON,ioos:station:TCOON:057:1,2008-02-05T00:00:00Z,28.4460,-96.3961,0.0,6.7,146.0,7.9,'11111222,11111222,11111222' 
TCOON,ioos:station:TCOON:057:1,2008-02-05T01:00:00Z,28.4460,-96.3961,0.0,5.6,157.0,6.2,'11111222,11111222,11111222' 
TCOON,ioos:station:TCOON:057:1,2008-02-05T02:00:00Z,28.4460,-96.3961,0.0,7.5,151.0,8.2,'11111222,11111222,11111222' 
TCOON,ioos:station:TCOON:057:1,2008-02-05T03:00:00Z,28.4460,-96.3961,0.0,7.3,148.0,8.1,'11111222,11111222,11111222' 
TCOON,ioos:station:TCOON:057:1,2008-02-05T04:00:00Z,28.4460,-96.3961,0.0,6.6,147.0,7.7,'11111222,11111222,11111222' 
TCOON,ioos:station:TCOON:057:1,2008-02-05T05:00:00Z,28.4460,-96.3961,0.0,5.3,153.0,6.3,'11111222,11111222,11111222' 
TCOON,ioos:station:TCOON:057:1,2008-02-05T06:00:00Z,28.4460,-96.3961,0.0,5.5,149.0,6.3,'11111222,11111222,11111222' 
TCOON,ioos:station:TCOON:057:1,2008-02-05T07:00:00Z,28.4460,-96.3961,0.0,4.9,148.0,5.3,'11111222,11111222,11111222' 
TCOON,ioos:station:TCOON:057:1,2008-02-05T08:00:00Z,28.4460,-96.3961,0.0,5.5,147.0,6.0,'11111222,11111222,11111222' 
TCOON,ioos:station:TCOON:057:1,2008-02-05T09:00:00Z,28.4460,-96.3961,0.0,4.0,159.0,4.3,'11111222,11111222,11111222' 
TCOON,ioos:station:TCOON:057:1,2008-02-05T10:00:00Z,28.4460,-96.3961,0.0,4.4,152.0,5.0,'11111222,11111222,11111222' 
TCOON,ioos:station:TCOON:057:1,2008-02-05T11:00:00Z,28.4460,-96.3961,0.0,3.3,170.0,3.6,'11111222,11111222,11111222' 
TCOON,ioos:station:TCOON:057:1,2008-02-05T12:00:00Z,28.4460,-96.3961,0.0,6.6,155.0,7.6,'11111222,11111222,11111222' 
TCOON,ioos:station:TCOON:057:1,2008-02-05T13:00:00Z,28.4460,-96.3961,0.0,5.5,154.0,6.6,'11111222,11111222,11111222' 
TCOON,ioos:station:TCOON:057:1,2008-02-05T14:00:00Z,28.4460,-96.3961,0.0,4.6,178.0,5.2,'11111222,11111222,11111222' 
TCOON,ioos:station:TCOON:057:1,2008-02-05T15:00:00Z,28.4460,-96.3961,0.0,6.2,179.0,7.3,'11111222,11111222,11111222' 
TCOON,ioos:station:TCOON:057:1,2008-02-05T16:00:00Z,28.4460,-96.3961,0.0,7.7,188.0,9.1,'11111222,11111222,11111222' 
TCOON,ioos:station:TCOON:057:1,2008-02-05T17:00:00Z,28.4460,-96.3961,0.0,9.6,197.0,11.2,'11111222,11111222,11111222' 
TCOON,ioos:station:TCOON:057:1,2008-02-05T18:00:00Z,28.4460,-96.3961,0.0,8.2,199.0,10.4,'11111222,11111222,11111222' 
TCOON,ioos:station:TCOON:057:1,2008-02-05T19:00:00Z,28.4460,-96.3961,0.0,9.2,196.0,11.5,'11111222,11111222,11111222' 
TCOON,ioos:station:TCOON:057:1,2008-02-05T20:00:00Z,28.4460,-96.3961,0.0,9.3,194.0,11.4,'11111222,11111222,11111222' 
TCOON,ioos:station:TCOON:057:1,2008-02-05T21:00:00Z,28.4460,-96.3961,0.0,8.4,184.0,10.1,'11111222,11111222,11111222' 
TCOON,ioos:station:TCOON:057:1,2008-02-05T22:00:00Z,28.4460,-96.3961,0.0,6.8,176.0,7.7,'11111222,11111222,11111222' 
TCOON,ioos:station:TCOON:057:1,2008-02-05T23:00:00Z,28.4460,-96.3961,0.0,5.9,176.0,6.9,'11111222,11111222,11111222' 
TCOON,ioos:station:TCOON:057:1,2008-02-06T00:00:00Z,28.4460,-96.3961,0.0,7.0,167.0,7.9,'11111222,11111222,11111222' 
TCOON,ioos:station:TCOON:057:1,2008-02-06T01:00:00Z,28.4460,-96.3961,0.0,6.0,178.0,6.7,'11111222,11111222,11111222' 
TCOON,ioos:station:TCOON:057:1,2008-02-06T02:00:00Z,28.4460,-96.3961,0.0,6.0,269.0,7.9,'11111222,11111222,11111222' 
TCOON,ioos:station:TCOON:057:1,2008-02-06T03:00:00Z,28.4460,-96.3961,0.0,7.5,339.0,8.7,'11111222,11111222,11111222' 
TCOON,ioos:station:TCOON:057:1,2008-02-06T04:00:00Z,28.4460,-96.3961,0.0,8.3,355.0,9.6,'11111222,11111222,11111222' 
TCOON,ioos:station:TCOON:057:1,2008-02-06T05:00:00Z,28.4460,-96.3961,0.0,8.4,348.0,9.7,'11111222,11111222,11111222' 
TCOON,ioos:station:TCOON:057:1,2008-02-06T06:00:00Z,28.4460,-96.3961,0.0,5.7,351.0,6.6,'11111222,11111222,11111222' 
TCOON,ioos:station:TCOON:057:1,2008-02-06T07:00:00Z,28.4460,-96.3961,0.0,7.4,341.0,8.5,'11111222,11111222,11111222' 
TCOON,ioos:station:TCOON:057:1,2008-02-06T08:00:00Z,28.4460,-96.3961,0.0,8.6,345.0,9.7,'11111222,11111222,11111222' 
TCOON,ioos:station:TCOON:057:1,2008-02-06T09:00:00Z,28.4460,-96.3961,0.0,11.2,360.0,13.4,'11111222,11144222,11111222' 
TCOON,ioos:station:TCOON:057:1,2008-02-06T10:00:00Z,28.4460,-96.3961,0.0,11.1,356.0,12.5,'11111222,11111222,11111222' 
TCOON,ioos:station:TCOON:057:1,2008-02-06T11:00:00Z,28.4460,-96.3961,0.0,11.5,345.0,12.9,'11111222,11111222,11111222' 
TCOON,ioos:station:TCOON:057:1,2008-02-06T12:00:00Z,28.4460,-96.3961,0.0,11.1,359.0,12.7,'11111222,11111222,11111222' 
TCOON,ioos:station:TCOON:057:1,2008-02-06T13:00:00Z,28.4460,-96.3961,0.0,11.5,356.0,13.2,'11111222,11111222,11111222' 
TCOON,ioos:station:TCOON:057:1,2008-02-06T14:00:00Z,28.4460,-96.3961,0.0,12.7,349.0,14.8,'11111222,11111222,11111222' 
TCOON,ioos:station:TCOON:057:1,2008-02-06T15:00:00Z,28.4460,-96.3961,0.0,10.3,348.0,12.4,'11111222,11111222,11111222' 
TCOON,ioos:station:TCOON:057:1,2008-02-06T16:00:00Z,28.4460,-96.3961,0.0,10.0,355.0,11.6,'11111222,11111222,11111222' 
TCOON,ioos:station:TCOON:057:1,2008-02-06T17:00:00Z,28.4460,-96.3961,0.0,7.8,351.0,9.0,'11111222,11111222,11111222' 
TCOON,ioos:station:TCOON:057:1,2008-02-06T18:00:00Z,28.4460,-96.3961,0.0,5.5,345.0,8.6,'11111222,11111222,11111222' 
TCOON,ioos:station:TCOON:057:1,2008-02-06T19:00:00Z,28.4460,-96.3961,0.0,3.1,325.0,4.1,'11111222,11111222,11111222' 
TCOON,ioos:station:TCOON:057:1,2008-02-06T20:00:00Z,28.4460,-96.3961,0.0,1.6,40.0,2.1,'11111222,11111222,11111222' 
TCOON,ioos:station:TCOON:057:1,2008-02-06T21:00:00Z,28.4460,-96.3961,0.0,1.9,57.0,2.6,'11111222,11111222,11111222' 
TCOON,ioos:station:TCOON:057:1,2008-02-06T22:00:00Z,28.4460,-96.3961,0.0,2.5,89.0,3.0,'11111222,11111222,11111222' 
TCOON,ioos:station:TCOON:057:1,2008-02-06T23:00:00Z,28.4460,-96.3961,0.0,4.0,105.0,4.9,'11111222,11111222,11111222' 
TCOON,ioos:station:TCOON:057:1,2008-02-07T00:00:00Z,28.4460,-96.3961,0.0,4.4,112.0,5.1,'11111222,11111222,11111222' 
TCOON,ioos:station:TCOON:057:1,2008-02-07T01:00:00Z,28.4460,-96.3961,0.0,4.3,137.0,4.8,'11111222,11111222,11111222' 
TCOON,ioos:station:TCOON:057:1,2008-02-07T02:00:00Z,28.4460,-96.3961,0.0,3.9,134.0,4.3,'11111222,11111222,11111222' 
TCOON,ioos:station:TCOON:057:1,2008-02-07T03:00:00Z,28.4460,-96.3961,0.0,3.5,117.0,4.0,'11111222,11111222,11111222' 
TCOON,ioos:station:TCOON:057:1,2008-02-07T04:00:00Z,28.4460,-96.3961,0.0,3.8,104.0,4.2,'11111222,11111222,11111222' 
TCOON,ioos:station:TCOON:057:1,2008-02-07T05:00:00Z,28.4460,-96.3961,0.0,3.6,109.0,4.1,'11111222,11111222,11111222' 
TCOON,ioos:station:TCOON:057:1,2008-02-07T06:00:00Z,28.4460,-96.3961,0.0,3.6,121.0,4.1,'11111222,11111222,11111222' 
TCOON,ioos:station:TCOON:057:1,2008-02-07T07:00:00Z,28.4460,-96.3961,0.0,4.8,123.0,5.4,'11111222,11111222,11111222' 
TCOON,ioos:station:TCOON:057:1,2008-02-07T08:00:00Z,28.4460,-96.3961,0.0,4.1,140.0,4.5,'11111222,11111222,11111222' 
TCOON,ioos:station:TCOON:057:1,2008-02-07T09:00:00Z,28.4460,-96.3961,0.0,3.4,125.0,4.1,'11111222,11111222,11111222' 
TCOON,ioos:station:TCOON:057:1,2008-02-07T10:00:00Z,28.4460,-96.3961,0.0,3.6,125.0,4.0,'11111222,11111222,11111222' 
TCOON,ioos:station:TCOON:057:1,2008-02-07T11:00:00Z,28.4460,-96.3961,0.0,2.9,129.0,3.2,'11111222,11111222,11111222' 
TCOON,ioos:station:TCOON:057:1,2008-02-07T12:00:00Z,28.4460,-96.3961,0.0,3.9,153.0,4.5,'11111222,11111222,11111222' 
TCOON,ioos:station:TCOON:057:1,2008-02-07T13:00:00Z,28.4460,-96.3961,0.0,3.0,150.0,3.6,'11111222,11111222,11111222' 
TCOON,ioos:station:TCOON:057:1,2008-02-07T14:00:00Z,28.4460,-96.3961,0.0,2.8,174.0,3.3,'11111222,11111222,11111222' 
TCOON,ioos:station:TCOON:057:1,2008-02-07T15:00:00Z,28.4460,-96.3961,0.0,2.5,184.0,3.5,'11111222,11111222,11111222' 
TCOON,ioos:station:TCOON:057:1,2008-02-07T16:00:00Z,28.4460,-96.3961,0.0,5.4,209.0,7.2,'11111222,11111222,11111222' 
TCOON,ioos:station:TCOON:057:1,2008-02-07T17:00:00Z,28.4460,-96.3961,0.0,4.7,248.0,5.3,'11111222,11111222,11111222' 
TCOON,ioos:station:TCOON:057:1,2008-02-07T18:00:00Z,28.4460,-96.3961,0.0,5.5,238.0,6.4,'11111222,11111222,11111222' 
TCOON,ioos:station:TCOON:057:1,2008-02-07T19:00:00Z,28.4460,-96.3961,0.0,5.4,235.0,6.4,'11111222,11111222,11111222' 
TCOON,ioos:station:TCOON:057:1,2008-02-07T20:00:00Z,28.4460,-96.3961,0.0,6.8,229.0,8.5,'11111222,11111222,11111222' 
TCOON,ioos:station:TCOON:057:1,2008-02-07T21:00:00Z,28.4460,-96.3961,0.0,7.0,218.0,8.3,'11111222,11111222,11111222' 
TCOON,ioos:station:TCOON:057:1,2008-02-07T22:00:00Z,28.4460,-96.3961,0.0,7.1,187.0,8.7,'11111222,11111222,11111222' 
TCOON,ioos:station:TCOON:057:1,2008-02-07T23:00:00Z,28.4460,-96.3961,0.0,6.1,192.0,7.2,'11111222,11111222,11111222' 
TCOON,ioos:station:TCOON:057:1,2008-02-08T00:00:00Z,28.4460,-96.3961,0.0,4.0,224.0,5.2,'11111222,11111222,11111222' 
TCOON,ioos:station:TCOON:057:1,2008-02-08T01:00:00Z,28.4460,-96.3961,0.0,2.3,225.0,2.5,'11111222,11111222,11111222' 
TCOON,ioos:station:TCOON:057:1,2008-02-08T02:00:00Z,28.4460,-96.3961,0.0,3.1,228.0,3.5,'11111222,11111222,11111222' 
TCOON,ioos:station:TCOON:057:1,2008-02-08T03:00:00Z,28.4460,-96.3961,0.0,1.9,332.0,2.3,'11111222,11111222,11111222' 
TCOON,ioos:station:TCOON:057:1,2008-02-08T04:00:00Z,28.4460,-96.3961,0.0,5.1,41.0,7.1,'11111222,11111222,11111222' 
TCOON,ioos:station:TCOON:057:1,2008-02-08T05:00:00Z,28.4460,-96.3961,0.0,4.8,43.0,5.6,'11111222,11111222,11111222' 
TCOON,ioos:station:TCOON:057:1,2008-02-08T06:00:00Z,28.4460,-96.3961,0.0,5.3,58.0,5.9,'11111222,11111222,11111222' 
TCOON,ioos:station:TCOON:057:1,2008-02-08T07:00:00Z,28.4460,-96.3961,0.0,3.7,88.0,4.2,'11111222,11111222,11111222' 
TCOON,ioos:station:TCOON:057:1,2008-02-08T08:00:00Z,28.4460,-96.3961,0.0,3.6,99.0,3.9,'11111222,11111222,11111222' 
TCOON,ioos:station:TCOON:057:1,2008-02-08T09:00:00Z,28.4460,-96.3961,0.0,4.1,99.0,4.6,'11111222,11111222,11111222' 
TCOON,ioos:station:TCOON:057:1,2008-02-08T10:00:00Z,28.4460,-96.3961,0.0,4.0,112.0,4.7,'11111222,11111222,11111222' 
TCOON,ioos:station:TCOON:057:1,2008-02-08T11:00:00Z,28.4460,-96.3961,0.0,3.1,123.0,3.6,'11111222,11111222,11111222' 
TCOON,ioos:station:TCOON:057:1,2008-02-08T12:00:00Z,28.4460,-96.3961,0.0,3.2,134.0,3.7,'11111222,11111222,11111222' 
TCOON,ioos:station:TCOON:057:1,2008-02-08T13:00:00Z,28.4460,-96.3961,0.0,4.3,128.0,4.7,'11111222,11111222,11111222' 
TCOON,ioos:station:TCOON:057:1,2008-02-08T14:00:00Z,28.4460,-96.3961,0.0,4.1,156.0,4.8,'11111222,11111222,11111222' 
TCOON,ioos:station:TCOON:057:1,2008-02-08T15:00:00Z,28.4460,-96.3961,0.0,4.5,162.0,5.0,'11111222,11111222,11111222' 
TCOON,ioos:station:TCOON:057:1,2008-02-08T16:00:00Z,28.4460,-96.3961,0.0,3.3,166.0,3.6,'11111222,11111222,11111222' 
TCOON,ioos:station:TCOON:057:1,2008-02-08T17:00:00Z,28.4460,-96.3961,0.0,5.2,178.0,6.4,'11111222,11111222,11111222' 
TCOON,ioos:station:TCOON:057:1,2008-02-08T18:00:00Z,28.4460,-96.3961,0.0,8.6,218.0,11.7,'11111222,11111222,11111222' 
TCOON,ioos:station:TCOON:057:1,2008-02-08T19:00:00Z,28.4460,-96.3961,0.0,8.2,211.0,11.3,'11111222,11111222,11111222' 
TCOON,ioos:station:TCOON:057:1,2008-02-08T20:00:00Z,28.4460,-96.3961,0.0,7.9,208.0,9.9,'11111222,11111222,11111222' 
TCOON,ioos:station:TCOON:057:1,2008-02-08T21:00:00Z,28.4460,-96.3961,0.0,7.0,176.0,8.1,'11111222,11111222,11111222' 
TCOON,ioos:station:TCOON:057:1,2008-02-08T22:00:00Z,28.4460,-96.3961,0.0,7.2,174.0,8.4,'11111222,11111222,11111222' 
TCOON,ioos:station:TCOON:057:1,2008-02-08T23:00:00Z,28.4460,-96.3961,0.0,6.3,184.0,7.5,'11111222,11111222,11111222' 
TCOON,ioos:station:TCOON:057:1,2008-02-09T00:00:00Z,28.4460,-96.3961,0.0,6.3,183.0,7.6,'11111222,11111222,11111222' 
TCOON,ioos:station:TCOON:057:1,2008-02-09T01:00:00Z,28.4460,-96.3961,0.0,4.0,177.0,4.7,'11111222,11111222,11111222' 
TCOON,ioos:station:TCOON:057:1,2008-02-09T02:00:00Z,28.4460,-96.3961,0.0,1.2,104.0,1.3,'11111222,11111222,11111222' 
TCOON,ioos:station:TCOON:057:1,2008-02-09T03:00:00Z,28.4460,-96.3961,0.0,1.6,149.0,2.1,'11111222,11111222,11111222' 
TCOON,ioos:station:TCOON:057:1,2008-02-09T04:00:00Z,28.4460,-96.3961,0.0,1.9,110.0,2.2,'11111222,11111222,11111222' 
TCOON,ioos:station:TCOON:057:1,2008-02-09T05:00:00Z,28.4460,-96.3961,0.0,2.1,117.0,2.3,'11111222,11111222,11111222' 
TCOON,ioos:station:TCOON:057:1,2008-02-09T06:00:00Z,28.4460,-96.3961,0.0,3.5,166.0,3.8,'11111222,11111222,11111222' 
TCOON,ioos:station:TCOON:057:1,2008-02-09T07:00:00Z,28.4460,-96.3961,0.0,4.1,186.0,4.6,'11111222,11111222,11111222' 
TCOON,ioos:station:TCOON:057:1,2008-02-09T08:00:00Z,28.4460,-96.3961,0.0,4.7,186.0,5.2,'11111222,11111222,11111222' 
TCOON,ioos:station:TCOON:057:1,2008-02-09T09:00:00Z,28.4460,-96.3961,0.0,3.7,180.0,4.0,'11111222,11111222,11111222' 
TCOON,ioos:station:TCOON:057:1,2008-02-09T10:00:00Z,28.4460,-96.3961,0.0,0.1,88.0,0.3,'11111222,11111222,11111222' 
TCOON,ioos:station:TCOON:057:1,2008-02-09T11:00:00Z,28.4460,-96.3961,0.0,5.3,27.0,5.8,'11111222,11111222,11111222' 
TCOON,ioos:station:TCOON:057:1,2008-02-09T12:00:00Z,28.4460,-96.3961,0.0,3.4,73.0,3.7,'11111222,11111222,11111222' 
TCOON,ioos:station:TCOON:057:1,2008-02-09T13:00:00Z,28.4460,-96.3961,0.0,3.5,57.0,3.8,'11111222,11111222,11111222' 
TCOON,ioos:station:TCOON:057:1,2008-02-09T14:00:00Z,28.4460,-96.3961,0.0,4.0,70.0,4.4,'11111222,11111222,11111222' 